Location: *
(33.8649°S, 62.1526°E)
Time: 10:36:43
(UTC+00:00)

Tiangong - Pass Details

Date: 26 September 2021
Orbit: 382 x 385 km, 41.5° (Epoch: 17 October)

Event Time Altitude Azimuth Distance (km) Brightness Sun altitude
Rises 15:34:13 0° 244° (WSW) 2,293 6.5 -22.0°
Reaches altitude 10° 15:36:37 10° 227° (SW) 1,437 4.9 -22.4°
Enters shadow 15:38:46 21° 186° (S) 955 3.3 -22.9°
